Date String (YYYY-MM-DD hh:mm:ss) UTC,Instrument flags,Ambient pressure (hPa),Sample flow (lpm),Bypass flow (lpm),Sample temperature (°C),Ambient temperature (°C),ASC tube jacket temperature (°C),LED temperature (°C),Box temperature (°C),Sample RH (%),Span deviation,Mass concentration (μg/m³),Mass concentration (μg/m³),Mass concentration (μg/m³)
DateTimeUTC,F1_M11,P_M11,Q1_M11,Q2_M11,T1_M11,T2_M11,T3_M11,T4_M11,T5_M11,U1_M11,ZSPAN_M11,X0_M11,X2_M11,X1_M11
2022-07-23 03:00:00,,0825.3,5.00,0.00,29.2,27.5,00.0,37.9,31.1,21.1,0000.0,0009.24,0004.60,0003.91
2022-07-23 03:01:00,,0825.4,5.00,0.00,29.2,27.7,00.0,38.0,31.2,21.0,0000.0,0009.19,0004.55,0003.87
2022-07-23 03:02:00,,0825.3,5.00,0.00,29.3,27.9,00.0,38.0,31.2,20.9,0000.0,0009.18,0004.53,0003.84
2022-07-23 03:03:00,,0825.3,5.00,0.00,29.3,28.1,00.0,38.0,31.3,20.8,0000.0,0008.78,0004.48,0003.78
2022-07-23 03:04:00,,0825.3,5.00,0.00,29.3,28.2,00.0,38.0,31.4,20.7,0000.0,0008.36,0004.37,0003.74
2022-07-23 03:05:00,,0825.4,5.01,0.00,29.4,28.3,00.0,38.0,31.4,20.6,0000.0,0008.22,0004.28,0003.69
2022-07-23 03:06:00,,0825.3,5.00,0.00,29.4,27.6,00.0,38.0,31.3,20.6,0000.0,0007.99,0004.19,0003.64
2022-07-23 03:07:00,,0825.3,5.00,0.00,29.4,27.0,00.0,37.9,31.2,20.6,0000.0,0007.53,0004.12,0003.60
2022-07-23 03:08:00,,0825.3,5.01,0.00,29.3,26.9,00.0,37.9,31.1,20.7,0000.0,0007.35,0004.04,0003.57
2022-07-23 03:09:00,,0825.4,5.00,0.00,29.3,27.0,00.0,37.9,31.1,20.8,0000.0,0007.09,0003.96,0003.52
2022-07-23 03:10:00,,0825.4,5.01,0.00,29.2,27.2,00.0,37.9,31.1,20.8,0000.0,0006.74,0003.90,0003.49
2022-07-23 03:11:00,,0825.4,5.00,0.00,29.2,27.4,00.0,38.0,31.1,20.8,0000.0,0006.85,0003.88,0003.47
2022-07-23 03:12:00,,0825.4,5.00,0.00,29.2,27.6,00.0,38.0,31.1,20.8,0000.0,0007.51,0003.89,0003.46
2022-07-23 03:13:00,,0825.4,4.99,0.00,29.3,27.8,00.0,38.0,31.2,20.8,0000.0,0007.57,0003.89,0003.46
2022-07-23 03:14:00,,0825.4,5.00,0.00,29.3,28.0,00.0,38.0,31.3,20.6,0000.0,0007.52,0003.88,0003.46
2022-07-23 03:15:00,,0825.4,5.00,0.00,29.3,28.1,00.0,38.0,31.3,20.5,0000.0,0007.59,0003.92,0003.47
2022-07-23 03:16:00,,0825.4,5.01,0.00,29.4,28.3,00.0,38.0,31.4,20.4,0000.0,0007.58,0003.92,0003.48
2022-07-23 03:17:00,,0825.4,5.01,0.00,29.4,28.1,00.0,38.0,31.4,20.3,0000.0,0007.76,0003.91,0003.48
2022-07-23 03:18:00,,0825.5,4.99,0.00,29.4,27.3,00.0,38.0,31.3,20.3,0000.0,0007.97,0003.94,0003.48
2022-07-23 03:19:00,,0825.4,5.01,0.00,29.3,26.9,00.0,37.9,31.2,20.4,0000.0,0008.06,0003.97,0003.49
2022-07-23 03:20:00,,0825.5,4.99,0.00,29.3,26.9,00.0,37.9,31.1,20.5,0000.0,0008.06,0003.99,0003.49
2022-07-23 03:21:00,,0825.5,5.01,0.00,29.2,27.0,00.0,37.9,31.0,20.5,0000.0,0008.14,0004.01,0003.49
2022-07-23 03:22:00,,0825.5,4.99,0.00,29.2,27.2,00.0,38.0,31.1,20.6,0000.0,0008.05,0004.01,0003.48
2022-07-23 03:23:00,,0825.6,4.99,0.00,29.2,27.4,00.0,38.0,31.1,20.5,0000.0,0007.31,0003.98,0003.48
2022-07-23 03:24:00,,0825.6,5.01,0.00,29.2,27.6,00.0,38.0,31.2,20.5,0000.0,0007.18,0003.95,0003.46
2022-07-23 03:25:00,,0825.6,5.01,0.00,29.3,27.8,00.0,38.0,31.2,20.5,0000.0,0007.09,0003.94,0003.46
2022-07-23 03:26:00,,0825.6,5.01,0.00,29.3,28.0,00.0,38.0,31.3,20.4,0000.0,0007.62,0003.93,0003.47
2022-07-23 03:27:00,,0825.6,5.00,0.00,29.3,28.1,00.0,38.0,31.3,20.4,0000.0,0007.78,0003.93,0003.47
2022-07-23 03:28:00,,0825.6,5.00,0.00,29.4,28.3,00.0,38.0,31.4,20.6,0000.0,0007.69,0003.97,0003.46
2022-07-23 03:29:00,,0825.6,5.01,0.00,29.4,27.9,00.0,38.0,31.4,20.7,0000.0,0007.84,0003.99,0003.46
2022-07-23 03:30:00,,0825.7,5.00,0.00,29.4,27.2,00.0,37.9,31.2,20.7,0000.0,0007.97,0003.98,0003.46
2022-07-23 03:31:00,,0825.6,4.99,0.00,29.3,26.9,00.0,37.9,31.1,20.8,0000.0,0008.03,0003.98,0003.46
2022-07-23 03:32:00,,0825.6,5.00,0.00,29.3,26.9,00.0,37.9,31.1,20.6,0000.0,0008.09,0003.97,0003.47
2022-07-23 03:33:00,,0825.6,4.99,0.00,29.2,27.1,00.0,37.9,31.0,20.6,0000.0,0008.12,0004.00,0003.48
2022-07-23 03:34:00,,0825.6,5.01,0.00,29.2,27.2,00.0,37.9,31.0,20.6,0000.0,0008.20,0004.02,0003.49
2022-07-23 03:35:00,,0825.7,5.00,0.00,29.2,27.4,00.0,38.0,31.1,20.5,0000.0,0008.36,0004.09,0003.51
2022-07-23 03:36:00,,0825.7,5.00,0.00,29.2,27.6,00.0,38.0,31.2,20.4,0000.0,0008.43,0004.12,0003.52
2022-07-23 03:37:00,,0825.7,4.99,0.00,29.3,27.8,00.0,38.0,31.2,20.4,0000.0,0008.20,0004.14,0003.52
2022-07-23 03:38:00,,0825.6,5.00,0.00,29.3,28.0,00.0,38.0,31.3,20.3,0000.0,0008.26,0004.17,0003.54
2022-07-23 03:39:00,,0825.6,5.00,0.00,29.3,28.1,00.0,38.0,31.3,20.2,0000.0,0008.50,0004.20,0003.56
2022-07-23 03:40:00,,0825.7,4.99,0.00,29.4,28.3,00.0,38.0,31.4,20.1,0000.0,0008.57,0004.20,0003.56
2022-07-23 03:41:00,,0825.7,5.00,0.00,29.4,28.4,00.0,38.1,31.4,20.1,0000.0,0008.39,0004.19,0003.56
2022-07-23 03:42:00,,0825.7,5.00,0.00,29.4,27.9,00.0,38.0,31.4,20.0,0000.0,0008.41,0004.21,0003.58
2022-07-23 03:43:00,,0825.7,4.99,0.00,29.4,27.1,00.0,38.0,31.3,20.0,0000.0,0008.41,0004.23,0003.59
2022-07-23 03:44:00,,0825.7,5.01,0.00,29.4,26.9,00.0,37.9,31.2,20.0,0000.0,0008.41,0004.20,0003.58
2022-07-23 03:45:00,,0825.7,4.99,0.00,29.3,27.0,00.0,38.0,31.1,20.1,0000.0,0008.89,0004.17,0003.58
2022-07-23 03:46:00,,0825.7,5.01,0.00,29.3,27.1,00.0,38.0,31.1,20.2,0000.0,0008.90,0004.13,0003.57
2022-07-23 03:47:00,,0825.7,5.00,0.00,29.3,27.3,00.0,38.0,31.1,20.2,0000.0,0010.12,0004.21,0003.58
2022-07-23 03:48:00,,0825.7,5.00,0.00,29.3,27.5,00.0,38.0,31.2,20.2,0000.0,0010.55,0004.20,0003.58
2022-07-23 03:49:00,,0825.7,4.99,0.00,29.3,27.7,00.0,38.0,31.2,20.2,0000.0,0010.51,0004.23,0003.57
2022-07-23 03:50:00,,0825.7,5.00,0.00,29.3,27.9,00.0,38.0,31.3,20.3,0000.0,0010.57,0004.22,0003.56
2022-07-23 03:51:00,,0825.7,5.01,0.00,29.3,28.1,00.0,38.0,31.3,20.3,0000.0,0010.31,0004.22,0003.55
2022-07-23 03:52:00,,0825.8,5.00,0.00,29.4,28.2,00.0,38.1,31.4,20.3,0000.0,0010.29,0004.23,0003.57
2022-07-23 03:53:00,,0826.0,4.99,0.00,29.4,28.3,00.0,38.1,31.4,20.3,0000.0,0010.39,0004.26,0003.56
2022-07-23 03:54:00,,0826.0,5.01,0.00,29.4,28.0,00.0,38.0,31.4,20.3,0000.0,0010.41,0004.28,0003.56
2022-07-23 03:55:00,,0826.0,4.99,0.00,29.4,27.1,00.0,38.0,31.3,20.3,0000.0,0010.31,0004.27,0003.56
2022-07-23 03:56:00,,0825.9,5.01,0.00,29.4,26.8,00.0,38.0,31.2,20.4,0000.0,0009.87,0004.28,0003.57
2022-07-23 03:57:00,,0825.9,4.99,0.00,29.3,26.9,00.0,38.0,31.1,20.5,0000.0,0009.66,0004.30,0003.57
2022-07-23 03:58:00,,0825.8,5.01,0.00,29.3,27.0,00.0,38.0,31.1,20.5,0000.0,0008.76,0004.27,0003.57
2022-07-23 03:59:00,,0825.8,5.00,0.00,29.2,27.2,00.0,38.0,31.1,20.6,0000.0,0008.05,0004.25,0003.56
